Location: Le Petit-Vavre
(46.5081°N, 1.5239°E)
Time: 14:57:16
(UTC+00:00)

Cosmos 1844 Rocket - Pass Details

Date: 03 March 2021
Orbit: 826 x 843 km, 71.0° (Epoch: 15 April)

Event Time Altitude Azimuth Distance (km) Brightness Sun altitude
Rises 18:21:12 0° 337° (NNW) 3,376 6.1 -7.4°
Reaches altitude 10° 18:23:47 10° 344° (NNW) 2,438 5.3 -7.8°
Maximum altitude 18:29:04 42° 55° (NE) 1,170 3.1 -8.7°
Drops below altitude 10° 18:34:19 10° 126° (SE) 2,426 4.6 -9.6°
Enters shadow 18:35:42 - 130° (SE) 2,928 5.0 -9.9°
